Location: Schommer Observatory
(40.5200°N, 74.4500°W)
Time: 13:59:22
(UTC-04:00)

Tiangong 1 - Pass Details

Date: 08 October 2017
Orbit: 293 x 320 km, 42.8° (Epoch: 20 October)

Event Time Altitude Azimuth Distance (km) Brightness Sun altitude
Rises 20:33:18 0° 279° (W) 2,030 6.1 -24.5°
Reaches altitude 10° 20:35:19 10° 285° (WNW) 1,195 4.6 -24.9°
Enters shadow 20:35:59 16° 290° (WNW) 936 3.9 -25.0°
